www.pogodaiklimat.ru

Погода и климат >> Архив погоды >> Россия >> Якутия >> Усть-Миль


ПОГОДА в Усть-Миле

  • Прогноз погоды в Усть-Миле
  • Монитор погоды в Усть-Миле
  • Климат города

АРХИВ ПОГОДЫ в Усть-Миле

Время (UTC), дата Ветер
(напр.,м/с)
 
Видим.   Явления Облачность Т
(С)
Тd
(С)
f
(%)
Тe
(С)
Тes
(С)
Комфортность P
(гПа)
Po
(гПа)
Тmin
(С)
Tmax
(С)
R
(мм)
R24
(мм)
S
(см)
06 17.05 ЮВ 1 50 км 10/0
[Ac trans Ci fib]
+16.6 -3.8 24 +18 +25 993.0 972.3
09 17.05 В 2 50 км 10/3 600 м
[Cb cap Ac trans Cs]
+15.5 -3.5 27 +16 +16 990.4 969.6 +16.8
12 17.05 З 2 50 км 10/8 600 м
[Cb cap As op]
+13.4 +1.0 43 +13 +13 990.5 969.7
15 17.05 штиль 0 50 км в посл. час ливневой дождь 10/6 600 м
[Cb cap As op]
+6.0 +4.4 89 +5 +5 994.4 972.8
18 17.05 штиль 0 50 км {ливн. осадки} 10/4 600 м
[Cb cap Cs]
+3.2 +1.9 91 +2 +2 996.9 975.0
21 17.05 СЗ 1 50 км 3/0
[Ac trans]
+4.6 +0.4 74 +3 +5 998.5 976.8 +3.1 2
00 18.05 СЗ 2 50 км 8/8 600 м
[Cb cap]
+5.6 -1.7 59 +4 +5 999.9 978.0
03 18.05 СЗ 2 50 км 8/8 600 м
[Cb cap]
+5.6 -1.7 59 +4 +6 999.9 978.0
06 18.05 С 3 20 км слабый ливневой дождь 10/8 600 м
[Cb cap Ci fib]
+7.9 0.0 57 +6 +7 1000.0 978.5
09 18.05 СЗ 2 50 км 4/4 600 м
[Cb cap]
+10.6 -3.6 37 +10 +11 1001.2 979.8 +11.0 0.1
12 18.05 С 3 50 км 8/8 600 м
[Cb cap]
+7.5 -3.6 45 +5 +5 1003.3 981.6
15 18.05 С 1 50 км ясно +3.5 -5.0 54 +3 +3 1004.4 982.4
18 18.05 С 1 50 км ясно -1.5 -4.8 78 -3 -3 1005.0 982.6
21 18.05 С 1 50 км 3/0
[Ac trans]
+1.5 -4.3 65 0 +2 1006.1 983.8 -2.0
00 19.05 Ю 1 50 км 10/0
[Cs]
+5.4 -6.7 41 +5 +13 1006.1 984.2
03 19.05 СЗ 2 50 км 10/6 600 м
[Cu med, cong Cs]
+7.0 -7.0 36 +6 +10 1005.0 983.2
06 19.05 СЗ 3 50 км 10/8 600 м
[Cb cap Ci fib]
+8.3 -6.0 36 +6 +8 1004.8 983.2
09 19.05 С 3 50 км 8/6 600 м
[Cb cap Ac trans]
+7.4 -5.0 41 +5 +6 1006.1 984.3 +8.5
12 19.05 СЗ 4 50 км ясно +4.2 -8.8 38 +1 +1 1008.5 986.6
15 19.05 штиль 0 50 км ясно -3.0 -10.6 56 -4 -4 1010.3 987.7
18 19.05 С 3 50 км 3/3 600 м
[Cb cap]
-1.0 -8.8 55 -5 -5 1011.7 989.2
21 19.05 штиль 0 50 км ясно +0.5 -8.7 50 0 +3 1012.5 990.1 -3.3
00 20.05 СЗ 3 50 км 1/1 600 м
[Cu hum]
+3.5 -8.0 43 0 +7 1012.4 990.2
03 20.05 З 3 50 км 3/3 600 м
[Cu hum]
+6.4 -9.2 32 +4 +12 1009.7 987.8
06 20.05 С 3 50 км 6/6 600 м
[Cb cap]
+6.5 -9.5 31 +4 +8 1008.2 986.4
09 20.05 СЗ 3 50 км 8/8 600 м
[Cb cap]
+5.5 -10.5 30 +3 +4 1008.0 986.1 +6.7
12 20.05 С 1 50 км 4/4 600 м
[Cb cap]
+2.8 -11.4 34 +2 +2 1008.6 986.5
15 20.05 штиль 0 50 км 6/6 600 м
[Cb cap]
-1.6 -15.4 34 -2 -2 1009.7 987.3
18 20.05 штиль 0 50 км 10/4 600 м
[Cb cap As op]
-0.6 -10.5 47 -1 -1 1010.3 987.8
21 20.05 н/о -6.7 1010.4 987.9 -1.8
00 21.05 СЗ 3 20 км слабый ливневой снег 8/8 600 м
[Cb cap]
+0.7 -3.0 76 -4 -2 1010.3 987.9
03 21.05 СЗ 4 20 км слабый ливневой снег 6/6 600 м
[Cb cap]
+2.0 -5.2 59 -2 +1 1009.8 987.6
06 21.05 С 3 20 км слабый ливневой снег 9/9 600 м
[Cb cap]
+1.7 -3.4 69 -2 -1 1010.5 988.3
09 21.05 СЗ 3 20 км слабый ливневой снег 8/4 600 м
[Cb cap Ac trans]
+3.0 -2.8 66 -1 0 1010.8 988.6 +3.0 0.5
12 21.05 С 1 50 км {ливн. осадки} 3/0
[Ac trans]
-0.5 -5.0 72 -2 -2 1011.8 989.3
15 21.05 штиль 0 50 км ясно -4.0 -6.2 85 -5 -5 1012.3 989.6
18 21.05 штиль 0 50 км ясно -6.9 -8.2 90 -8 -8 1012.7 989.6
21 21.05 штиль 0 50 км ясно -2.0 -3.5 89 -3 -1 1012.1 989.6 -7.5
00 22.05 Ю 1 50 км ясно +3.8 -6.2 48 +3 +14 опасность
простуды
1011.2 989.0
03 22.05 Ю 2 50 км ясно +6.6 -5.9 40 +5 +19 опасность
простуды
1009.5 987.6
06 22.05 Ю 1 50 км ясно +10.9 -5.2 32 +11 +23 опасность
простуды
1007.2 985.7
09 22.05 ЮВ 2 50 км 3/0
[Ci fib]
+12.4 -5.4 28 +12 +14 1006.3 985.0 +12.5
12 22.05 СВ 2 50 км 4/0
[Ci fib]
+9.1 -7.3 31 +8 +8 1006.1 984.5
15 22.05 В 2 50 км ясно +6.5 -7.0 37 +5 +5 1005.3 983.5
18 22.05 штиль 0 50 км ясно +5.2 -7.0 41 +5 +18 опасность
простуды
1004.2 982.4
21 22.05 В 2 50 км 3/0
[Ac trans]
+8.0 -4.8 40 +7 +8 1002.5 981.0 +4.3
00 23.05 В 2 50 км 3/0
[Ac trans]
+15.3 -2.2 30 +15 +23 1001.3 980.2
03 23.05 ЮВ 2 50 км 10/0
[Ac trans Ci fib]
+20.0 -0.1 26 +21 +30 комфорт 999.3 978.7
06 23.05 Ю 1 50 км 10/4 600 м
[Cb cap Ci fib]
+22.2 +1.3 25 +22 +27 комфорт 998.3 977.8
09 23.05 З 2 50 км в посл. час ливневой дождь 8/8 600 м
[Cb cap]
+19.0 -0.5 27 +20 +20 999.3 978.5 +22.4
12 23.05 СВ 1 50 км {ливн. осадки} 6/6 600 м
[Cb cap]
+12.4 -0.9 40 +13 +13 1001.2 980.0
15 23.05 штиль 0 50 км 8/8 600 м
[Cb cap]
+10.0 +0.4 51 +10 +10 1002.8 981.4
18 23.05 штиль 0 50 км 10/4 600 м
[Cb cap Ac trans Cs]
+7.4 0.0 59 +7 +7 1005.1 983.3
21 23.05 З 1 50 км 1/0
[Ac trans]
+8.0 +2.5 68 +7 +10 1007.2 985.6 +7.2
00 24.05 З 1 50 км ясно +12.6 +4.3 57 +13 +24 опасность
простуды
1008.2 986.9
03 24.05 ЮЗ 1 50 км ясно +16.5 +5.2 47 +17 +34 опасность
простуды
1006.7 985.7

 

Местоположение метеостанции Усть-Миль (Якутия, Россия): широта 59.63 долгота 133.00 высота над уровнем моря 179 м.

В архиве по умолчанию представлена погода в Усть-Миле за последнюю неделю. Архивные данные за месяц целиком и за предыдущие месяцы, начиная с января 2011 года, Вы можете получить, выбрав интересующий диапазон дат из раскрывающегося списка и нажав кнопку "Ввод!".

Внимание! Время в таблицах - всемирное. Для получения местного времени необходимо прибавить поправку, которая в Усть-Миле равна 9 ч.

Смотрите также архив погоды в соседних городах и на ближайших метеорологических станциях:

Погода в Усть-Мае (Якутия, Россия) (112 км)
Погода в Усть-Юдоме (Якутия, Россия) (129 км)
Погода в Амге (Якутия, Россия) (154 км)
Погода в Учуре (Якутия, Россия) (169 км)
Погода в Тегюльте (Якутия, Россия) (191 км)
Погода в Чюльбю (Якутия, Россия) (240 км)
Погода в Югоренке (Якутия, Россия) (259 км)
Погода в Чурапче (Якутия, Россия) (268 км)
Погода в Угино (Якутия, Россия) (280 км)
Погода в Охотском Перевозе (Якутия, Россия) (284 км)

Пояснения к столбцам:

Ветер - указаны скорость ветра в м/с - средняя за 10 мин, порывы в срок и между сроками (в фигурных скобках) и направление, откуда дует ветер: С - северный, СВ - северо-восточный, В - восточный, ЮВ - юго-восточный, Ю - южный, ЮЗ - юго-западный, З - западный, СЗ - северо-западный.
Видимость - горизонтальная дальность видимости в метрах или километрах. При видимости от 1 до 10 км при отсутствии осадков обычно наблюдается дымка, при ухудшении видимости до 1 км и менее - туман. В сухую погоду видимость может ухудшаться дымом, пылью или мглою.
Явления - указаны атмосферные явления, наблюдавшиеся в срок или в последний час перед сроком; фигурными скобками обозначены явления, наблюдавшиеся между сроками (за 1-3 часа до срока); квадратными скобками обозначены град или гололедные отложения с указанием их диаметра в мм.
Облачность - указаны через наклонную черту общая и нижняя облачность в баллах и высота нижней границы облаков в метрах; квадратными скобками обозначены формы облаков: Ci - перистые, Cs - перисто-слоистые, Cc - перисто-кучевые, Ac - высококучевые, As - высокослоистые, Sc - слоисто-кучевые, Ns - слоисто-дождевые, Cu - кучевые, Cb - кучево-дождевые. Подробнее классификацию облаков см. в Атласе облаков (PDF).
T - Температура воздуха - температура, измеренная на высоте 2 м над землей.
Td - Температура точки росы - температура, при понижении до которой содержащийся в воздухе водяной пар достигнет насыщения.
f - Относительная влажность воздуха - влажноcть воздуха, измеренная на высоте 2 м над землей.
Te - Эффективная температура - температура, которую ощущает одетый по сезону человек в тени. Характеристика душности погоды. При расчете учитывается влияние влажности воздуха и скорости ветра на теплоощущения человека.
Tes - Эффективная температура на солнце - температура, которую ощущает человек, с поправкой на солнечный нагрев. Характеристика знойности погоды. Зависит от высоты солнца над горизонтом, облачности и скорости ветра. Ночью, в пасмурную погоду, а также при ветре 12 м/с и более поправка равна нулю.
P - Атмосферное давление - приведенное к уровню моря атмосферное давление.
Po - Атмосферное давление - измеренное на уровне метеостанции атмосферное давление.
Tmin - Минимальная температура - минимум температуры воздуха на высоте 2 м над землей.
Tmax - Максимальная температура - максимум температуры воздуха на высоте 2 м над землей.
R - Количество осадков - Количество выпавших осадков за период времени, мм. При наведении курсора мыши на число - период времени, за который выпало указанное количество осадков.
R24 - Количество осадков - Количество выпавших осадков за 24 часа, мм.
S - Снежный покров - Высота снежного покрова, см. При наведении курсора мыши на число - состояние снежного покрова и степень покрытия местности в баллах.